Lexington Weather

Lexington, Massachusetts, USA

55°F
5/18/2024 12:06am 
  • Lexington Conditions: Clear
  • Temperature: 54.5°F / 12.5°CColder 1.3°F than last hour.
  • Dew Point: 50.0°FDecreased 0.4°Fsince last hour.
  • Relative Humidity: 85%Increased 3.0% since last hour.
  • Wind: Calm, 10-min avg: Calm, gust: None
  • Barometer: 29.96 in Steady
  • Visibility: 10 miles
  • Rain Today: 0.00 in
  •   

Regional Weather Roundup
for Boston, MA

        
000
ASUS41 KBOX 130510
RWRBOX

REGIONAL WEATHER ROUNDUP
NATIONAL WEATHER SERVICE BOSTON/NORTON MA
100 AM EDT MON MAY 13 2024

NOTE:  "FAIR" INDICATES FEW OR NO CLOUDS BELOW 12,000 FEET WITH NO 
SIGNIFICANT WEATHER AND/OR OBSTRUCTIONS TO VISIBILITY.

MAZALL-130600-
EASTERN MASSACHUSETTS
  
CITY           SKY/WX    TMP DP  RH WIND       PRES   REMARKS
BOSTON         PTCLDY    52  45  77 SW7       29.96R                  
BEVERLY        CLEAR     43  41  93 CALM      29.95R                  
LAWRENCE       CLEAR     45  41  86 CALM      29.97R                  
BEDFORD        CLOUDY    50  45  83 W5        29.95R                  
NORWOOD        CLOUDY    50  47  89 CALM      29.97R                  
MARSHFIELD     PTCLDY    46  45  93 W6        29.96R                  
PLYMOUTH       PTCLDY    46  42  86 W6        29.95S                  
TAUNTON        MOCLDY    50  45  83 CALM      29.97R                  
NEW BEDFORD    CLOUDY    49  47  93 W7        29.97R                  
$$

MAZALL-130600-
CAPE COD AND THE ISLANDS
  
CITY           SKY/WX    TMP DP  RH WIND       PRES   REMARKS
FALMOUTH       NOT AVBL                                               
HYANNIS        MOCLDY    48  44  86 W5        29.95R                  
CHATHAM        CLOUDY    49  44  83 W3        29.97R                  
PROVINCETOWN   CLOUDY    49  47  93 SW3       29.97R                  
NANTUCKET      CLEAR     47  44  90 W9        29.98R                  
MARTHAS VNYRD  CLEAR     46  45  96 SW3       29.97S                  
$$
 
MAZALL-130600-
CENTRAL AND WESTERN MASSACHUSETTS
  
CITY           SKY/WX    TMP DP  RH WIND       PRES   REMARKS
WORCESTER      CLOUDY    50  42  74 W9        29.95S                  
FITCHBURG      CLOUDY    51  44  77 CALM      29.96S                  
ORANGE         PTCLDY    46  44  93 CALM      29.97S                  
SPRINGFIELD    CLEAR     49  44  81 S3        29.94S                  
WESTFIELD      CLEAR     46  42  86 S5        29.96S                  
NORTH ADAMS    NOT AVBL                                               
PITTSFIELD     CLEAR     40  38  93 CALM      29.95F                  
$$
 
RIZALL-130600-
RHODE ISLAND
  
CITY           SKY/WX    TMP DP  RH WIND       PRES   REMARKS
PROVIDENCE     CLOUDY    49  47  93 S5        29.98S                  
NEWPORT        CLOUDY    49  46  90 CALM      29.98R                  
BLOCK ISLAND   CLOUDY    49  44  83 SW10      29.99S                  
SMITHFIELD     LGT RAIN  47  46  97 SW5       29.97S                  
WESTERLY       CLOUDY    50  45  83 VRB5      29.98S                  
$$
 
CTZALL-130600-
CONNECTICUT
  
CITY           SKY/WX    TMP DP  RH WIND       PRES   REMARKS
BRADLEY INTL   PTCLDY    51  43  74 S3        29.97S                  
HARTFORD       CLEAR     49  46  90 SE3       29.98R                  
PLAINVILLE     FAIR      45  45 100 CALM      29.98S                  
BRIDGEPORT     CLEAR     50  44  80 W5        30.00R                  
DANBURY        CLEAR     43  39  86 CALM      30.00S                  
GROTON         CLEAR     50  49  96 W5        29.98S                  
NEW HAVEN      CLEAR     53  46  77 VRB5      29.99R                  
CHESTER        CLEAR     46  46 100 CALM      29.99R                  
MERIDEN        CLEAR     43  41  93 CALM      30.00R FOG              
WILLIMANTIC    CLEAR     45  44  97 CALM      29.99R                  
OXFORD         CLEAR     45  43  93 VRB3      29.99S                  
$$

MEZ002-015-021-024-NHZ003-005-008-011-012-014-VTZ005-008-130600-
NORTHERN NEW ENGLAND
  
CITY           SKY/WX    TMP DP  RH WIND       PRES   REMARKS
PORTLAND ME    CLOUDY    50  47  89 SW3       29.94S                  
BANGOR ME      CLOUDY    48  40  73 SW5       29.94R                  
CONCORD NH     CLOUDY    45  43  93 CALM      29.95R                  
MANCHESTER NH  CLOUDY    49  43  80 CALM      29.94R                  
NASHUA NH      CLOUDY    49  48  97 CALM      29.96R                  
PORTSMOUTH NH  PTCLDY    45  42  88 CALM      29.93S                  
JAFFREY NH     MOCLDY    49  43  80 CALM      29.95S                  
KEENE NH       MOCLDY    47  46  97 CALM      29.96R                  
BURLINGTON VT  CLOUDY    52  45  77 CALM      29.93S                  
MT. WASHINGTON MOCLDY    30  23  74 E2          N/A                   
$$

NYZ052-076-130600-
EASTERN NEW YORK
  
CITY           SKY/WX    TMP DP  RH WIND       PRES   REMARKS
ALBANY         CLEAR     44  41  89 CALM      29.98R                  
NEW YORK CITY  PTCLDY    51  43  74 SW8       30.01R                  
$$
 
ANZALL-130600-
MARINE OBSERVATIONS
  
STATION/POSITION TIME  TEMP    WIND        PRES    VSBY  WAVE
                       AIR SEA DIR/SP/G                  HT/PER
                 (UTC) (F)     (DEG/KT/KT) (MB)    (MI)  (FT/S)
BOSTON BUOY      0450   51 50  250/  6/ 10 1014.6R         5/ 9
BUZZARDS BAY     0400   49     260/ 20/ 22 1015.0F
NANTUCKET SOUND  0450   51 53  250/ 14/ 16 1014.2R         1/ 3
MASS BAY-STELLWA 0304   53 51  250/ 10/ 12 1013.8F  1 7/8  5/11
ISLE OF SHOALS   0400   53     260/  7/  8 1013.3R
S OF BLOCK IS    0456      48                N/A           3/10
$$

......................KEY.........................
  SKY/WX - SKY CONDITION/PRESENT WEATHER
  TMP    - TEMPERATURE IN FAHRENHEIT
  DWPT   - DEWPOINT IN FAHRENHEIT
  RH     - RELATIVE HUMIDITY IN PERCENT
  WIND   - DIRECTION AND SPEED IN MPH
  PRES   - MEAN SEA LEVEL PRESSURE IN INCHES OF HG
  WCI    - WIND CHILL INDEX
  VSB    - VISIBILITY IN MILES
  HX     - HEAT INDEX
  TC     - TEMPERATURE IN CELSIUS
  VRB    - VARIABLE WIND DIRECTION
  N/A    - NOT AVAILABLE
  
      

Other recent Regional Weather Roundups

Fri May 17, 11:10pm EDT

Fri May 17, 10:10pm EDT

Fri May 17, 9:10pm EDT

Fri May 17, 8:10pm EDT

Fri May 17, 7:10pm EDT

Fri May 17, 6:10pm EDT

Fri May 17, 5:10pm EDT

Fri May 17, 4:10pm EDT

Fri May 17, 3:10pm EDT

Fri May 17, 2:10pm EDT

Fri May 17, 1:10pm EDT

Fri May 17, 12:10pm EDT

Fri May 17, 11:10am EDT

Fri May 17, 10:10am EDT

Fri May 17, 9:10am EDT

Fri May 17, 8:10am EDT

Fri May 17, 7:10am EDT

Fri May 17, 6:10am EDT

Fri May 17, 5:10am EDT

Fri May 17, 4:10am EDT

Fri May 17, 3:10am EDT

Fri May 17, 2:10am EDT

Fri May 17, 1:10am EDT

Fri May 17, 12:10am EDT

Thu May 16, 11:10pm EDT

Thu May 16, 10:10pm EDT

Thu May 16, 9:10pm EDT

Thu May 16, 8:10pm EDT

Thu May 16, 7:10pm EDT

Thu May 16, 6:10pm EDT

Thu May 16, 5:10pm EDT

Thu May 16, 4:10pm EDT

Thu May 16, 3:10pm EDT

Thu May 16, 2:10pm EDT

Thu May 16, 1:10pm EDT

Thu May 16, 12:10pm EDT

Thu May 16, 11:10am EDT

Thu May 16, 10:10am EDT

Thu May 16, 9:10am EDT

Thu May 16, 8:10am EDT

Thu May 16, 7:10am EDT

Thu May 16, 6:10am EDT

Thu May 16, 5:10am EDT

Thu May 16, 4:10am EDT

Thu May 16, 3:10am EDT

Thu May 16, 2:10am EDT

Thu May 16, 1:10am EDT

Thu May 16, 12:10am EDT

Wed May 15, 11:10pm EDT

Wed May 15, 10:10pm EDT

Wed May 15, 9:10pm EDT

Wed May 15, 8:10pm EDT

Wed May 15, 7:10pm EDT

Wed May 15, 6:10pm EDT

Wed May 15, 5:10pm EDT

Wed May 15, 4:10pm EDT

Wed May 15, 3:10pm EDT

Wed May 15, 2:10pm EDT

Wed May 15, 1:10pm EDT

Wed May 15, 12:10pm EDT

Wed May 15, 11:10am EDT

Wed May 15, 10:10am EDT

Wed May 15, 9:10am EDT

Wed May 15, 8:10am EDT

Wed May 15, 7:10am EDT

Wed May 15, 6:10am EDT

Wed May 15, 5:10am EDT

Wed May 15, 4:10am EDT

Wed May 15, 3:10am EDT

Wed May 15, 2:10am EDT

Wed May 15, 1:10am EDT

Wed May 15, 12:10am EDT

Tue May 14, 11:10pm EDT

Tue May 14, 10:10pm EDT

Tue May 14, 9:10pm EDT

Tue May 14, 8:10pm EDT

Tue May 14, 7:10pm EDT

Tue May 14, 6:10pm EDT

Tue May 14, 5:10pm EDT

Tue May 14, 4:10pm EDT

Tue May 14, 3:10pm EDT

Tue May 14, 2:10pm EDT

Tue May 14, 1:10pm EDT

Tue May 14, 12:10pm EDT

Tue May 14, 11:10am EDT

Tue May 14, 10:10am EDT

Tue May 14, 9:10am EDT

Tue May 14, 8:10am EDT

Tue May 14, 7:10am EDT

Tue May 14, 6:10am EDT

Tue May 14, 5:10am EDT

Tue May 14, 4:10am EDT

Tue May 14, 3:10am EDT

Tue May 14, 2:10am EDT

Tue May 14, 1:10am EDT

Tue May 14, 12:10am EDT

Mon May 13, 11:10pm EDT

Mon May 13, 10:10pm EDT

Mon May 13, 9:10pm EDT

Mon May 13, 8:10pm EDT

Mon May 13, 7:10pm EDT

Mon May 13, 6:10pm EDT

Mon May 13, 5:10pm EDT

Mon May 13, 4:10pm EDT

Mon May 13, 3:10pm EDT

Mon May 13, 2:10pm EDT

Mon May 13, 1:10pm EDT

Mon May 13, 12:10pm EDT

Mon May 13, 11:10am EDT

Mon May 13, 10:10am EDT

Mon May 13, 9:10am EDT

Mon May 13, 8:10am EDT

Mon May 13, 7:10am EDT

Mon May 13, 6:10am EDT

Mon May 13, 5:10am EDT

Mon May 13, 4:10am EDT

Mon May 13, 3:10am EDT

Mon May 13, 2:10am EDT

Mon May 13, 12:10am EDT

Sun May 12, 11:10pm EDT

Sun May 12, 10:10pm EDT

Sun May 12, 9:10pm EDT

Sun May 12, 8:10pm EDT

Sun May 12, 7:10pm EDT

Sun May 12, 6:10pm EDT

Sun May 12, 5:10pm EDT

Sun May 12, 4:10pm EDT

Sun May 12, 3:10pm EDT

Sun May 12, 2:10pm EDT

Sun May 12, 1:10pm EDT

Sun May 12, 12:10pm EDT

Sun May 12, 11:10am EDT

Sun May 12, 10:10am EDT

Sun May 12, 9:10am EDT

Sun May 12, 8:10am EDT

Sun May 12, 7:10am EDT

Sun May 12, 6:10am EDT

Sun May 12, 5:10am EDT

Sun May 12, 4:10am EDT

Sun May 12, 3:10am EDT

Sun May 12, 2:10am EDT

Sun May 12, 1:10am EDT

Sun May 12, 12:10am EDT

Sat May 11, 11:10pm EDT

Sat May 11, 10:10pm EDT

Sat May 11, 9:10pm EDT

Sat May 11, 8:10pm EDT

Sat May 11, 7:10pm EDT

Sat May 11, 6:10pm EDT

Sat May 11, 5:10pm EDT

Sat May 11, 4:10pm EDT

Sat May 11, 3:10pm EDT

Sat May 11, 2:10pm EDT

Sat May 11, 1:10pm EDT

Sat May 11, 12:10pm EDT

Sat May 11, 11:10am EDT

Sat May 11, 10:10am EDT

Sat May 11, 9:10am EDT

Sat May 11, 8:10am EDT

Sat May 11, 7:10am EDT

Sat May 11, 6:10am EDT

Sat May 11, 5:10am EDT

Sat May 11, 4:10am EDT

Sat May 11, 3:10am EDT

Sat May 11, 2:10am EDT

Sat May 11, 1:10am EDT

Sat May 11, 12:10am EDT